Precipitable_Water
1.27 1.15 1.12 1.22 1.32 1.28 1.21 1.30 1.51 1.54 1.54 1.46 1.36 1.30 1.16 1.21 1.26 1.23 1.14 1.18 1.23 1.20
1.27 1.20 1.12 1.34 1.35 1.27 1.33 1.45 1.55 1.55 1.55 1.47 1.35 1.29 1.14 1.13 1.21 1.25 1.17 1.06 1.15 1.15
1.23 1.26 1.24 1.35 1.26 1.24 1.42 1.53 1.53 1.54 1.52 1.44 1.48 1.43 1.34 1.14 1.18 1.23 1.20 1.18 1.11 1.10
1.21 1.22 1.29 1.28 1.28 1.27 1.44 1.52 1.49 1.51 1.47 1.42 1.43 1.45 1.41 1.36 1.16 1.13 1.16 1.21 1.21 1.14
1.27 1.23 1.24 1.24 1.22 1.33 1.40 1.46 1.49 1.50 1.48 1.48 1.46 1.46 1.42 1.38 1.30 1.12 1.10 1.16 1.22 1.21
1.30 1.20 1.21 1.18 1.24 1.29 1.35 1.42 1.48 1.50 1.49 1.49 1.49 1.47 1.48 1.45 1.42 1.30 1.17 1.18 1.20 1.21
1.30 1.16 1.16 1.22 1.20 1.24 1.28 1.31 1.40 1.47 1.51 1.52 1.52 1.53 1.54 1.55 1.52 1.51 1.43 1.27 1.23 1.26
1.29 1.24 1.19 1.21 1.23 1.23 1.27 1.30 1.36 1.38 1.41 1.49 1.52 1.53 1.53 1.57 1.58 1.62 1.59 1.50 1.31 1.28
1.28 1.26 1.16 1.21 1.25 1.23 1.24 1.33 1.34 1.34 1.37 1.41 1.48 1.57 1.64 1.68 1.72 1.73 1.63 1.53 1.39 1.25
1.31 1.19 1.15 1.20 1.27 1.26 1.24 1.32 1.36 1.41 1.50 1.53 1.63 1.76 1.80 1.85 1.79 1.72 1.66 1.57 1.45 1.28
1.40 1.24 1.20 1.20 1.24 1.32 1.39 1.38 1.42 1.49 1.57 1.69 1.91 2.04 1.96 1.85 1.76 1.73 1.69 1.67 1.50 1.33
1.49 1.38 1.28 1.15 1.21 1.34 1.43 1.47 1.54 1.69 1.83 1.89 1.49 1.96 1.87 1.87 1.82 1.69 1.66 1.56 1.48 1.46
1.46 1.51 1.40 1.26 1.24 1.40 1.58 1.64 1.73 1.75 1.88 1.90 1.85 1.78 1.90 1.88 1.78 1.55 1.45 1.41 1.44 1.48
1.40 1.52 1.56 1.52 1.46 1.48 1.62 1.75 1.79 1.82 2.00 2.03 1.88 1.79 1.78 1.65 1.53 1.42 1.31 1.25 1.30 1.40
Wind_Speed
22 21 20 18 18 16 14 15 13 10 8 6 6 5 5 6 7 8 8 8 8 9
23 22 21 20 19 17 16 15 15 12 10 8 7 6 7 8 9 9 10 10 10 10
24 24 22 22 21 20 17 16 15 13 11 10 9 9 9 10 11 11 11 12 12 13
23 24 24 24 22 22 20 18 17 15 14 13 12 12 12 12 13 14 14 15 15 16
22 24 25 25 24 23 22 19 18 17 15 15 15 14 14 14 15 16 16 17 18 18
23 24 26 26 25 25 23 22 20 18 17 17 17 17 17 18 18 18 19 19 19 20
25 25 27 27 26 26 25 24 22 21 20 19 19 20 20 20 21 21 22 22 22 22
27 26 28 28 28 27 26 25 24 23 22 21 21 21 21 22 23 24 23 24 24 25
28 28 29 29 28 27 27 26 25 25 24 23 23 24 24 24 24 23 24 25 25 25
28 29 29 30 29 28 28 26 25 25 24 25 25 25 25 24 23 24 25 26 25 25
30 29 29 30 31 30 28 27 26 25 25 25 25 24 23 23 23 24 26 27 26 26
33 30 30 31 31 30 29 28 27 26 25 25 21 22 22 23 24 25 26 26 25 25
34 33 31 31 31 31 29 28 27 26 25 24 22 21 21 23 24 25 25 25 25 26
34 36 34 32 31 31 30 28 27 26 25 21 21 21 22 24 24 24 24 25 26 27
Wind_Direction
227 228 227 225 224 224 220 213 213 218 226 237 249 273 285 312 331 337 339 340 336 333
228 227 224 222 222 221 217 216 214 222 228 237 247 265 281 294 304 317 323 324 324 320
226 225 223 221 220 217 215 213 217 222 229 236 252 265 279 289 293 302 305 310 313 313
225 223 221 219 218 217 215 219 221 225 232 242 253 266 277 286 288 291 298 299 302 307
225 222 219 218 217 217 219 223 225 231 239 247 255 266 274 282 286 290 291 294 296 300
225 222 218 218 218 220 222 226 230 236 242 249 258 265 273 278 286 287 289 292 292 294
225 223 220 220 221 223 226 229 234 240 246 254 261 267 271 277 283 286 288 289 288 289
226 225 223 223 224 227 229 232 238 243 250 256 262 268 273 277 281 283 288 290 288 287
227 226 225 225 226 228 230 236 241 247 252 257 264 269 273 277 281 283 290 291 290 286
227 226 226 226 226 228 232 238 242 247 253 259 265 270 273 277 283 286 289 292 289 285
227 227 226 227 227 230 234 238 244 250 255 262 268 267 270 275 284 288 290 291 288 286
228 228 228 228 228 230 234 239 245 251 255 259 268 267 271 276 283 289 291 291 288 286
229 228 229 228 228 230 234 240 245 250 254 258 267 268 273 279 285 288 290 290 290 289
231 228 229 229 229 231 235 240 246 249 254 258 265 268 276 282 285 287 290 291 293 294